Date String (YYYY-MM-DD hh:mm:ss) UTC,Instrument flags,absolute air pressure of the measurement (hPa),sample flow rate (lpm),inlet stack bypass flow (lpm),air temperature of the measurement (°C),ambient temperature measured by the external sensor (°C),aerosol sample conditioner tube jacket temperature (°C),OPC LED temperature (°C),internal box temperature (°C),relative humidity of the measurement (%),span deviation,mass concentration of particles derived from Lorenz-Mie calculation of OPC scattering (μg/m³),mass concentration of particles derived from Lorenz-Mie calculation of OPC scattering (μg/m³),mass concentration of particles derived from Lorenz-Mie calculation of OPC scattering (μg/m³)
DateTimeUTC,F1_M11,P_M11,Q1_M11,Q2_M11,T1_M11,T2_M11,T3_M11,T4_M11,T5_M11,U1_M11,ZSPAN_M11,X0_M11,X2_M11,X1_M11
2023-06-23 13:00:00,SystemResetWarning,0830.0,5.00,000.00,030.6,028.2,000.0,039.0,031.6,31.6,0001.5,0011.86,0005.88,0005.23
2023-06-23 13:01:00,SystemResetWarning,0830.0,5.00,000.00,030.6,028.2,000.0,039.0,031.6,30.5,0001.7,0011.59,0005.83,0005.17
2023-06-23 13:02:00,SystemResetWarning,0830.0,5.00,000.00,030.6,028.3,000.0,039.0,031.6,30.2,0001.6,0011.48,0005.79,0005.14
2023-06-23 13:03:00,SystemResetWarning,0830.0,5.00,000.00,030.6,028.4,000.0,039.0,031.6,29.7,0001.9,0011.44,0005.78,0005.09
2023-06-23 13:04:00,SystemResetWarning,0830.0,5.00,000.00,030.6,028.4,000.0,039.0,031.6,29.7,0002.1,0011.32,0005.73,0005.03
2023-06-23 13:05:00,SystemResetWarning,0830.0,5.00,000.00,030.6,028.5,000.0,039.0,031.7,29.6,0001.9,0011.29,0005.70,0004.98
2023-06-23 13:06:00,SystemResetWarning,0830.0,5.00,000.00,030.6,028.5,000.0,039.0,031.7,30.4,0001.7,0011.58,0005.65,0004.95
2023-06-23 13:07:00,SystemResetWarning,0830.0,5.00,000.00,030.6,028.6,000.0,039.0,031.7,30.6,0001.5,0011.58,0005.60,0004.92
2023-06-23 13:08:00,SystemResetWarning,0830.0,5.00,000.00,030.6,028.6,000.0,039.0,031.7,30.1,0001.1,0011.45,0005.58,0004.89
2023-06-23 13:09:00,SystemResetWarning,0830.0,4.99,000.00,030.6,028.6,000.0,039.0,031.7,30.4,0001.6,0010.72,0005.52,0004.86
2023-06-23 13:10:00,SystemResetWarning,0830.0,4.99,000.00,030.6,028.6,000.0,039.1,031.8,31.0,0001.3,0010.86,0005.49,0004.85
2023-06-23 13:11:00,SystemResetWarning,0829.9,5.00,000.00,030.6,028.7,000.0,039.1,031.8,31.1,0001.5,0010.21,0005.45,0004.86
2023-06-23 13:12:00,SystemResetWarning,0829.9,4.99,000.00,030.6,028.7,000.0,039.1,031.8,31.2,0001.5,0009.89,0005.43,0004.87
2023-06-23 13:13:00,SystemResetWarning,0829.9,5.00,000.00,030.6,028.7,000.0,039.1,031.8,31.3,0001.6,0009.77,0005.40,0004.86
2023-06-23 13:14:00,SystemResetWarning,0829.8,5.01,000.00,030.6,028.7,000.0,039.1,031.8,31.2,0001.9,0009.92,0005.39,0004.86
2023-06-23 13:15:00,SystemResetWarning,0829.8,5.00,000.00,030.6,028.7,000.0,039.1,031.8,31.5,0001.5,0009.89,0005.39,0004.87
2023-06-23 13:16:00,SystemResetWarning,0829.8,5.00,000.00,030.7,028.8,000.0,039.1,031.9,31.6,0002.0,0009.86,0005.38,0004.88
2023-06-23 13:17:00,SystemResetWarning,0829.8,5.01,000.00,030.7,028.8,000.0,039.1,031.9,31.8,0001.2,0009.61,0005.40,0004.89
2023-06-23 13:18:00,SystemResetWarning,0829.8,5.00,000.00,030.7,028.8,000.0,039.1,031.9,32.0,0002.6,0009.49,0005.47,0004.92
2023-06-23 13:19:00,SystemResetWarning,0829.8,5.00,000.00,030.7,028.8,000.0,039.1,031.9,32.1,0002.5,0009.48,0005.51,0004.93
2023-06-23 13:20:00,SystemResetWarning,0829.8,5.01,000.00,030.7,028.8,000.0,039.1,031.9,32.1,0002.4,0009.33,0005.50,0004.94
2023-06-23 13:21:00,SystemResetWarning,0829.8,4.99,000.00,030.7,028.8,000.0,039.1,032.0,32.2,0002.3,0008.82,0005.50,0004.96
2023-06-23 13:22:00,SystemResetWarning,0829.8,4.98,000.00,030.7,028.9,000.0,039.2,032.0,32.2,0002.1,0008.91,0005.53,0004.96
2023-06-23 13:23:00,SystemResetWarning,0829.8,5.01,000.00,030.7,028.9,000.0,039.2,032.0,32.2,0002.3,0008.92,0005.56,0004.99
2023-06-23 13:24:00,SystemResetWarning,0829.8,5.00,000.00,030.7,028.9,000.0,039.2,032.0,32.4,0002.1,0009.07,0005.64,0005.03
2023-06-23 13:25:00,SystemResetWarning,0829.8,5.00,000.00,030.7,028.4,000.0,039.2,032.0,32.3,0001.8,0008.91,0005.64,0005.06
2023-06-23 13:26:00,SystemResetWarning,0829.8,4.99,000.00,030.7,026.3,000.0,039.1,032.0,32.3,0002.2,0008.97,0005.68,0005.08
2023-06-23 13:27:00,SystemResetWarning,0829.7,5.01,000.00,030.7,025.3,000.0,039.0,031.9,32.4,0002.0,0009.13,0005.73,0005.09
2023-06-23 13:28:00,SystemResetWarning,0829.7,5.01,000.00,030.5,025.4,000.0,039.0,031.5,33.1,0001.6,0009.26,0005.76,0005.11
2023-06-23 13:29:00,SystemResetWarning,0829.7,5.00,000.00,030.4,025.8,000.0,039.0,031.4,33.4,0001.4,0009.32,0005.75,0005.12
2023-06-23 13:30:00,SystemResetWarning,0829.7,5.00,000.00,030.4,026.2,000.0,039.0,031.4,33.7,0001.2,0009.27,0005.73,0005.13
2023-06-23 13:31:00,SystemResetWarning,0829.7,5.00,000.00,030.3,026.6,000.0,039.0,031.4,33.6,0000.9,0009.30,0005.75,0005.13
2023-06-23 13:32:00,SystemResetWarning,0829.7,5.00,000.00,030.3,027.0,000.0,038.9,031.4,33.2,0001.3,0009.67,0005.82,0005.15
2023-06-23 13:33:00,SystemResetWarning,0829.7,5.00,000.00,030.3,027.3,000.0,038.9,031.5,33.4,0001.9,0009.87,0005.86,0005.18
2023-06-23 13:34:00,SystemResetWarning,0829.7,5.00,000.00,030.3,027.5,000.0,038.9,031.5,32.8,0001.9,0010.12,0005.91,0005.18
2023-06-23 13:35:00,SystemResetWarning,0829.7,5.00,000.00,030.3,027.7,000.0,038.9,031.5,32.7,0002.0,0010.69,0005.90,0005.17
2023-06-23 13:36:00,SystemResetWarning,0829.7,5.00,000.00,030.3,027.9,000.0,038.9,031.5,33.2,0002.0,0011.01,0005.90,0005.16
2023-06-23 13:37:00,SystemResetWarning,0829.7,5.00,000.00,030.3,028.0,000.0,038.9,031.5,32.9,0001.6,0011.72,0005.92,0005.16
2023-06-23 13:38:00,SystemResetWarning,0829.7,5.00,000.00,030.3,028.1,000.0,038.9,031.5,32.2,0001.6,0011.63,0005.92,0005.16
2023-06-23 13:39:00,SystemResetWarning,0829.6,5.00,000.00,030.3,028.2,000.0,038.9,031.6,31.8,0001.9,0011.53,0005.88,0005.16
2023-06-23 13:40:00,SystemResetWarning,0829.7,5.00,000.00,030.3,028.3,000.0,038.9,031.6,31.9,0001.9,0011.43,0005.86,0005.16
2023-06-23 13:41:00,SystemResetWarning,0829.6,5.00,000.00,030.3,028.4,000.0,038.8,031.6,32.5,0001.7,0011.91,0005.87,0005.17
2023-06-23 13:42:00,SystemResetWarning,0829.6,5.00,000.00,030.3,028.4,000.0,038.8,031.6,32.1,0002.0,0012.16,0005.89,0005.17
2023-06-23 13:43:00,SystemResetWarning,0829.6,5.00,000.00,030.3,028.5,000.0,038.8,031.6,31.7,0002.3,0012.19,0005.85,0005.16
2023-06-23 13:44:00,SystemResetWarning,0829.6,5.00,000.00,030.3,028.5,000.0,038.9,031.7,32.0,0001.9,0012.10,0005.82,0005.14
2023-06-23 13:45:00,SystemResetWarning,0829.7,5.00,000.00,030.3,028.6,000.0,038.9,031.7,31.4,0001.8,0012.18,0005.81,0005.13
2023-06-23 13:46:00,SystemResetWarning,0829.7,5.00,000.00,030.3,028.6,000.0,038.9,031.7,30.9,0001.6,0011.78,0005.78,0005.12
2023-06-23 13:47:00,SystemResetWarning,0829.6,5.00,000.00,030.3,028.7,000.0,038.9,031.7,31.0,0001.6,0011.41,0005.78,0005.12
2023-06-23 13:48:00,SystemResetWarning,0829.6,5.00,000.00,030.4,028.7,000.0,038.9,031.7,31.2,0001.8,0010.70,0005.75,0005.11
2023-06-23 13:49:00,SystemResetWarning,0829.5,5.00,000.00,030.4,028.7,000.0,038.9,031.8,30.6,0002.2,0010.76,0005.73,0005.10
2023-06-23 13:50:00,SystemResetWarning,0829.5,4.99,000.00,030.4,028.8,000.0,038.9,031.8,31.2,0002.3,0011.10,0005.73,0005.09
2023-06-23 13:51:00,SystemResetWarning,0829.4,4.99,000.00,030.4,028.8,000.0,038.9,031.8,30.8,0002.5,0011.10,0005.72,0005.08
2023-06-23 13:52:00,SystemResetWarning,0829.4,5.00,000.00,030.4,028.8,000.0,038.9,031.8,31.1,0001.8,0010.78,0005.70,0005.07
2023-06-23 13:53:00,SystemResetWarning,0829.3,5.01,000.00,030.4,028.9,000.0,038.9,031.9,31.0,0002.1,0010.40,0005.66,0005.05
2023-06-23 13:54:00,SystemResetWarning,0829.3,5.01,000.00,030.4,028.9,000.0,038.9,031.9,31.4,0001.5,0010.12,0005.64,0005.05
2023-06-23 13:55:00,SystemResetWarning,0829.3,5.00,000.00,030.5,028.4,000.0,038.9,032.0,30.9,0003.0,0010.02,0005.60,0005.05
2023-06-23 13:56:00,SystemResetWarning,0829.3,4.99,000.00,030.5,026.4,000.0,038.9,031.9,30.9,0002.2,0009.85,0005.56,0005.05
2023-06-23 13:57:00,SystemResetWarning,0829.3,5.02,000.00,030.4,025.2,000.0,038.8,031.9,31.5,0001.7,0010.50,0005.56,0005.03
2023-06-23 13:58:00,SystemResetWarning,0829.3,5.01,000.00,030.4,025.1,000.0,038.8,031.5,31.6,0002.8,0010.47,0005.54,0005.03
2023-06-23 13:59:00,SystemResetWarning,0829.3,5.00,000.00,030.2,025.5,000.0,038.8,031.3,31.7,0002.2,0010.53,0005.56,0005.04
